Погода в Малиновке

Погода в Малиновке : погода сейчас, прогноз погоды и архив. Всё, что Вы хотите узнать о погоде в Малиновке!

Поиск расширенной информации на нашем сайте:

Другие новости

Новости СМИ2

Главная страница сайта

Новости сайта

03.07.2017

Напоминаем, что на нашем специализированном сайте Метеоцентр.Азия вы можете получить высокодетализированные автоматические прогнозы погоды по пунктам России, СНГ и мира в авиационном формате (включающие направление и скорость ветра, видимость, явления погоды, количество и форму облачности, нижнюю и верхнюю границу облачности).


Погода в Малиновке - сегодня

Время (UTC), дата Ветер
(°,м/с) 
Видим.   Явления Облачность Т
(°С)
Тd
(°С)
f(%) Тe
(°С)
Pmin
(гПа)
dP
(гПа)
Po
(мм)
O2
(г/м3)
Тmin Tmax R s Состояние
почвы
09 16.04.18 260 (З) 3{10}  20000 м    8/0 верхняя 
[Ci fib]
+16.3 -8.7 17 +17  1005  -0.7  744  284           
15 16.04.18 060 (СВ) 50000 м    ясно 
-1.8 -5.4 76 -1  1007.5  0.1  745  303           
18 16.04.18 330 (СЗ) 50000 м    ясно 
-2.8 -5.2 84 -2  1005.9  -1.7  743  303           
00 17.04.18 190 (Ю) 20000 м    9/0 верхняя 
[Ci fib]
+11.3 -4.1 34 +12  1004.3  -0.3  743  288  -3.2        мокрая 
03 17.04.18 210 (ЮЗ) 20000 м    10/0 верхняя 
[Cs]
+16.2 -2.7 27 +17  1003.6  -0.4  743  283           
06 17.04.18 250 (З) 20000 м    10/0 верхняя 
[Cs]
+18.2 -2.1 25 +19  1002.8  -0.7  742  280           
09 17.04.18 320 (СЗ) 20000 м    10/0 верхняя 
[Cs]
+17.4 -2.3 26 +18  1002.9  0.1  742  281           
15 17.04.18 тихо ()   50000 м    10/0 средняя, верхняя 
[Ac trans|Ci fib]
+8.7 -3.2 43 +9  1006.1  0.7  744  291           
18 17.04.18 320 (СЗ) 50000 м    10/0 средняя, верхняя 
[Ac trans|Ci fib]
+5.7 -6.4 41 +5  1006.9  0.6  745  295           
21 17.04.18 330 (СЗ) 20000 м    3/0 верхняя 
[Ci fib]
+2.4 -7.2 49 +1  1008.7  0.6  746  299           
00 18.04.18 310 (СЗ) 20000 м    9/0 верхняя 
[Ci]
+9.2 -7.4 30 +9  1009.8  1.4  747  292  +2.3        влажная 
03 18.04.18 330 (СЗ) 20000 м    1/0 верхняя 
[Ci fib]
+14.1 -11.2 16 +14  1009.3  -0.3  747  287           
06 18.04.18 310 (СЗ) 20000 м    10/0 верхняя 
[Ci]
+14.8 -12.6 14 +15  1007.9  -1.3  746  286           
09 18.04.18 310 (СЗ) 20000 м    10/0 средняя, верхняя 
[Ac trans|Ci]
+13.7 -10.3 18 +14  1007.4  -0.6  745  287           
15 18.04.18 050 (СВ) н/о    н/о 
-0.6 -6.6 64 1008.7  0.2  746  302           
18 18.04.18 350 (С) 50000 м    8/0 верхняя 
[Ci fib]
-2.5 -7.1 71 -2  1008.6  -0.2  746  304           
21 18.04.18 320 (СЗ) 7000 м  дым  10/0 верхняя 
[Ci fib]
-1.2 -5.3 74 -1  1009.2  0.7  746  302           
00 19.04.18 030 (СВ) 2000 м  дым  10/0 средняя, верхняя 
[Ac trans|Ci fib]
+4.9 -6.4 44 +6  1010.6  1.7  747  296  -2.7        мокрая 
03 19.04.18 200 (Ю) 6000 м  дым  ясно 
+14 -5.6 25 +15  1009.4  -0.8  747  287           
06 19.04.18 210 (ЮЗ) 20000 м    3/3 1000 м 
[Cu hum]
+18.5 -1.7 25 +19  1006.9  -2.2  745  281           
09 19.04.18 220 (ЮЗ) 20000 м    3/0 средняя 
[Ac trans]
+18.4 -0.9 27 +19  1006.6  -0.3  745  281           
15 19.04.18 330 (СЗ) 50000 м    10/0 средняя, верхняя 
[Ac trans|Ci]
+6.4 -1 59 +6  1009.4  1.4  746  294           
18 19.04.18 010 (С) 50000 м    10/0 средняя, верхняя 
[Ac trans|Ci]
+8.9 -2.4 45 +10  1011.4  2.1  748  292           
21 19.04.18 010 (С) 2000 м  дым  10/0 средняя, верхняя 
[Ac trans|Ci]
+7.2 -3.9 45 +8  1011.5  748  294           
00 20.04.18 050 (СВ) 2000 м  дым  8/0 верхняя 
[Ci fib]
+9.9 -3.5 39 +9  1010.4  -1  747  291  +3.5        мокрая 
Время (UTC), дата Ветер
(°,м/с) 
Видим.   Явления Облачность Т
(°С)
Тd
(°С)
f(%) Тe
(°С)
Pmin
(гПа)
dP
(гПа)
Po
(мм)
O2
(г/м3)
Тmin Tmax R s Состояние
почвы

Для получения пояснительной информации подведите курсор к названию столбца.

ПОГОДА в Малиновке - архив

Всё, что Вы хотите узнать о погоде в Малиновке - удобно и подробно!

Выберите нужную дату (начиная с 1 января 2015* года) и нажмите кнопку "Найти".
Будут отображены архивные сводки погоды по пункту Малиновка, начиная с указанной даты.


Отображать данные в формате CSV (для использования в таблицах Excel)


Внимание! Наш архив погоды предназначен исключительно для личного некоммерческого использования в познавательных целях. Если Вам необходимы официальные справки о состоянии погоды (для производственных, юридических, коммерческих и т.п. целей), обращайтесь в органы Росгидромета.

*Примечание: данная дата относится к архиву по метеостанциям СССР (Россия, СНГ, Балтия).
Архив по метеостанциям Зарубежной Европы и Азии (кроме Китая) хранится 10 дней, по другим регионам земного шара (Китай, Африка, Америка, Австралия, Океания) - 1 день.

Малиновка - район местоположения метеостанции


Название, широта, долгота, высота метеостанции:
Малиновка 49.8°ш. 129.9°д. 116 м над ур. моря [Российская Федерация]

Дополнительная информация

В oтличие oт бoльшинства пoгoдных сайтoв мы публикуем пoдрoбную метеoинфoрмацию в детальнoм прoфессиoнальнoм фoрмате.

Характеристики температуры и влажнoсти вoздуха измеряются на высoте 2 м в тени вдали oт зданий и деревьев.
Скoрoсть ветра измеряется на высoте 10 м (на урoвне рoста челoвека скoрoсть ветра ниже в 1.5-2 раза). Если метеoстанция нахoдится в гoрoде или в лесу, тo скoрoсть ветра занижена на 2-4 м/с пo сравнению с oткрытым местoм. Скoрoсть ветра над акватoриями крупных рек и oзёр, а также на вершинах хoлмoв на 2-5 м/с выше, чем в oбычных услoвиях.
Атмoсфернoе давление в разных тoчках местнoсти мoжет значительнo oтличаться oт давления на метеoстанции, в зависимoсти oт услoвий рельефа (при пoдъёме на 10 м давление пoнижается примернo на 1 мм рт.ст.).